Tracking 18794 objects as of 22-September-2017
HD Live streaming from Space Station
objects crossing your sky now

COSMOS 970 DEB

Track COSMOS 970 DEB now!
10-day predictions


NORAD ID: 12862
Int'l Code: 1977-121AQ
Perigee: 769.4 km
Apogee: 998.0 km
Inclination: 66.2 °
Period: 102.5 minutes
Semi major axis: 7254 km
RCS: 0.0129 m2 (small)
Launch date: December 21, 1977
Source: Commonwealth of Independent States (former USSR) (CIS)
Launch site: TYURATAM MISSILE AND SPACE COMPLEX (TTMTR)

Note: This is SATELLITE DEBRIS
aabbcc
Your satellite tracking list
Your tracking list is empty





NASA's NSSDC Master Catalog

Two Line Element Set (TLE):
1 12862U 77121AQ  17264.48605150 +.00000254 +00000-0 +18794-3 0  9999
2 12862 066.2120 020.9510 0157513 296.9949 188.4845 14.04996002901794
Source of the keplerian elements: AFSPC